,,,PA_Meas_PMT16A,,PR_Meas_QMR101_102,,RH_Meas_QMH101,,SR_Meas_QMS101,,TA_Meas_QMH101,,GenWind,,GenWind,
date,time,status,PA,status,PR,status,RH,status,SR,status,TA,status,DirAvg,status,SpdAvg,
2008-10-30, 00:00:04,VALID,1007.35,VALID,0,VALID,90.5243,VALID,0,VALID,22.5942,VALID,9,VALID,1.53789,
2008-10-30, 00:01:04,VALID,1007.33,VALID,0,VALID,90.5472,VALID,0,VALID,22.6349,VALID,358,VALID,0.733203,
2008-10-30, 00:02:04,VALID,1007.3,VALID,0,VALID,90.5167,VALID,0.100563,VALID,22.5748,VALID,27,VALID,1.12891,
2008-10-30, 00:03:04,VALID,1007.31,VALID,0,VALID,90.5243,VALID,0,VALID,22.6137,VALID,30,VALID,0.999609,
2008-10-30, 00:04:04,VALID,1007.26,VALID,0,VALID,90.4556,VALID,0,VALID,22.6332,VALID,359,VALID,1.00781,
2008-10-30, 00:05:04,VALID,1007.2,VALID,0,VALID,90.3946,VALID,0,VALID,22.6526,VALID,11,VALID,2.29297,
2008-10-30, 00:06:04,VALID,1007.21,VALID,0,VALID,90.2649,VALID,0,VALID,22.7305,VALID,24,VALID,1.15742,
2008-10-30, 00:07:04,VALID,1007.21,VALID,0,VALID,90.2191,VALID,0,VALID,22.7305,VALID,21,VALID,1.06602,
2008-10-30, 00:08:04,VALID,1007.18,VALID,0,VALID,90.0666,VALID,0,VALID,22.7516,VALID,22,VALID,2.2207,
2008-10-30, 00:09:04,VALID,1007.17,VALID,0,VALID,90.1047,VALID,0,VALID,22.7694,VALID,353,VALID,0.861328,
2008-10-30, 00:10:04,VALID,1007.16,VALID,0,VALID,90.0971,VALID,0,VALID,22.7499,VALID,1,VALID,0.797266,
2008-10-30, 00:11:04,VALID,1007.12,VALID,0,VALID,90.0284,VALID,0.100563,VALID,22.7305,VALID,2,VALID,1.15352,
2008-10-30, 00:12:04,VALID,1007.11,VALID,0,VALID,90.0055,VALID,0,VALID,22.7516,VALID,358,VALID,1.12617,
2008-10-30, 00:13:04,VALID,1007.06,VALID,0,VALID,89.9826,VALID,0,VALID,22.6898,VALID,5,VALID,0.70625,
2008-10-30, 00:14:04,VALID,1007.07,VALID,0,VALID,89.975,VALID,0.100563,VALID,22.7322,VALID,15,VALID,0.867969,
2008-10-30, 00:15:04,VALID,1007.07,VALID,0,VALID,89.8606,VALID,0,VALID,22.6704,VALID,352,VALID,1.41602,
2008-10-30, 00:16:04,VALID,1007.03,VALID,0,VALID,89.7614,VALID,0,VALID,22.6915,VALID,350,VALID,0.953125,
2008-10-30, 00:17:04,VALID,1007.03,VALID,0,VALID,89.6546,VALID,0,VALID,22.711,VALID,2,VALID,0.873047,
2008-10-30, 00:18:04,VALID,1006.99,VALID,0,VALID,89.6317,VALID,0,VALID,22.6704,VALID,6,VALID,1.01797,
2008-10-30, 00:19:04,VALID,1006.96,VALID,0,VALID,89.6546,VALID,0,VALID,22.6721,VALID,3,VALID,1.03789,
2008-10-30, 00:20:04,VALID,1006.92,VALID,0,VALID,89.6088,VALID,0,VALID,22.6526,VALID,359,VALID,1.72578,
2008-10-30, 00:21:04,VALID,1006.93,VALID,0,VALID,89.647,VALID,0.100563,VALID,22.6526,VALID,17,VALID,0.867188,
2008-10-30, 00:22:04,VALID,1006.9,VALID,0,VALID,89.6546,VALID,0,VALID,22.6721,VALID,8,VALID,0.846484,
2008-10-30, 00:23:04,VALID,1006.86,VALID,0,VALID,89.4105,VALID,0,VALID,22.6332,VALID,351,VALID,1.96328,
2008-10-30, 00:24:04,VALID,1006.84,VALID,0,VALID,89.1282,VALID,0,VALID,22.6704,VALID,351,VALID,1.4168,
2008-10-30, 00:25:04,VALID,1006.82,VALID,0,VALID,89.0595,VALID,0,VALID,22.6915,VALID,359,VALID,1.6168,
2008-10-30, 00:26:04,VALID,1006.78,VALID,0,VALID,89.1587,VALID,0,VALID,22.711,VALID,1,VALID,1.31797,
2008-10-30, 00:27:04,VALID,1006.77,VALID,0,VALID,89.0214,VALID,0,VALID,22.6721,VALID,340,VALID,1.46563,
2008-10-30, 00:28:04,VALID,1006.74,VALID,0,VALID,89.029,VALID,0,VALID,22.6721,VALID,348,VALID,1.91211,
2008-10-30, 00:29:04,VALID,1006.73,VALID,0,VALID,89.235,VALID,0,VALID,22.6721,VALID,5,VALID,1.05469,
2008-10-30, 00:30:04,VALID,1006.71,VALID,0,VALID,89.3342,VALID,0,VALID,22.6738,VALID,343,VALID,1.45625,
2008-10-30, 00:31:04,VALID,1006.72,VALID,0,VALID,89.6088,VALID,0,VALID,22.6526,VALID,346,VALID,1.34922,
2008-10-30, 00:32:04,VALID,1006.69,VALID,0,VALID,89.6165,VALID,0,VALID,22.6526,VALID,344,VALID,0.957812,
2008-10-30, 00:33:04,VALID,1006.65,VALID,0,VALID,89.6393,VALID,0,VALID,22.6332,VALID,350,VALID,1.75391,
2008-10-30, 00:34:04,VALID,1006.67,VALID,0,VALID,89.5478,VALID,0,VALID,22.6543,VALID,354,VALID,1.93633,
2008-10-30, 00:35:04,VALID,1006.65,VALID,0,VALID,89.4715,VALID,0,VALID,22.6526,VALID,353,VALID,1.48125,
2008-10-30, 00:36:04,VALID,1006.65,VALID,0,VALID,89.441,VALID,0,VALID,22.6526,VALID,339,VALID,1.39414,
2008-10-30, 00:37:04,VALID,1006.66,VALID,0,VALID,89.3876,VALID,0,VALID,22.6543,VALID,346,VALID,1.78086,
2008-10-30, 00:38:04,VALID,1006.66,VALID,0,VALID,89.4715,VALID,0,VALID,22.6738,VALID,349,VALID,1.51367,
2008-10-30, 00:39:04,VALID,1006.66,VALID,0,VALID,89.4486,VALID,0,VALID,22.6526,VALID,352,VALID,1.65195,
2008-10-30, 00:40:04,VALID,1006.64,VALID,0,VALID,89.4334,VALID,0,VALID,22.6332,VALID,349,VALID,1.7043,
2008-10-30, 00:41:04,VALID,1006.64,VALID,0,VALID,89.6012,VALID,0,VALID,22.6543,VALID,338,VALID,0.977344,
2008-10-30, 00:42:04,VALID,1006.63,VALID,0,VALID,89.6393,VALID,0,VALID,22.6543,VALID,353,VALID,1.10742,
2008-10-30, 00:43:04,VALID,1006.58,VALID,0,VALID,89.6317,VALID,0,VALID,22.6137,VALID,351,VALID,1.53281,
2008-10-30, 00:44:04,VALID,1006.55,VALID,0,VALID,89.8224,VALID,0,VALID,22.6349,VALID,360,VALID,1.27891,
2008-10-30, 00:45:04,VALID,1006.54,VALID,0,VALID,89.914,VALID,0,VALID,22.6154,VALID,359,VALID,1.04375,
2008-10-30, 00:46:04,VALID,1006.55,VALID,0,VALID,89.9445,VALID,0,VALID,22.6349,VALID,355,VALID,0.866797,
2008-10-30, 00:47:04,VALID,1006.53,VALID,0,VALID,89.9292,VALID,0,VALID,22.596,VALID,358,VALID,1.0668,
2008-10-30, 00:48:04,VALID,1006.52,VALID,0,VALID,89.9903,VALID,0,VALID,22.5748,VALID,3,VALID,1.33633,
2008-10-30, 00:49:04,VALID,1006.54,VALID,0,VALID,89.7385,VALID,0,VALID,22.5359,VALID,358,VALID,2.65781,
2008-10-30, 00:50:04,VALID,1006.51,VALID,0,VALID,89.8301,VALID,0,VALID,22.596,VALID,2,VALID,1.04453,
2008-10-30, 00:51:04,VALID,1006.5,VALID,0,VALID,89.6546,VALID,0,VALID,22.596,VALID,23,VALID,2.11602,
2008-10-30, 00:52:04,VALID,1006.51,VALID,0,VALID,89.5097,VALID,0,VALID,22.5942,VALID,20,VALID,1.72344,
2008-10-30, 00:53:04,VALID,1006.48,VALID,0,VALID,89.4257,VALID,0,VALID,22.6137,VALID,3,VALID,1.45781,
2008-10-30, 00:54:04,VALID,1006.5,VALID,0,VALID,89.4181,VALID,0,VALID,22.6137,VALID,20,VALID,1.04219,
2008-10-30, 00:55:04,VALID,1006.47,VALID,0,VALID,89.4715,VALID,0,VALID,22.6543,VALID,353,VALID,1.03242,
2008-10-30, 00:56:04,VALID,1006.48,VALID,0.5,VALID,89.5859,VALID,0,VALID,22.6154,VALID,9,VALID,0.733984,
2008-10-30, 00:57:04,VALID,1006.48,VALID,0,VALID,89.5402,VALID,0,VALID,22.596,VALID,6,VALID,0.761328,
2008-10-30, 00:58:04,VALID,1006.46,VALID,0,VALID,89.4486,VALID,0,VALID,22.596,VALID,6,VALID,1.74414,
2008-10-30, 00:59:04,VALID,1006.46,VALID,0,VALID,89.647,VALID,0,VALID,22.5942,VALID,23,VALID,0.555078,
2008-10-30, 01:00:04,VALID,1006.46,VALID,0,VALID,89.6927,VALID,0,VALID,22.596,VALID,13,VALID,0.638281,
2008-10-30, 01:01:04,VALID,1006.47,VALID,0,VALID,89.5783,VALID,0,VALID,22.596,VALID,1,VALID,1.13594,
2008-10-30, 01:02:04,VALID,1006.48,VALID,0,VALID,89.5936,VALID,0,VALID,22.6154,VALID,15,VALID,0.964844,
2008-10-30, 01:03:04,VALID,1006.46,VALID,0,VALID,89.4257,VALID,0,VALID,22.5942,VALID,10,VALID,1.47148,
2008-10-30, 01:04:04,VALID,1006.47,VALID,0,VALID,89.3494,VALID,0,VALID,22.596,VALID,79,VALID,1.60039,
2008-10-30, 01:05:04,VALID,1006.53,VALID,0,VALID,89.4028,VALID,0,VALID,22.6137,VALID,11,VALID,1.39766,
2008-10-30, 01:06:04,VALID,1006.5,VALID,0,VALID,89.3952,VALID,0,VALID,22.5942,VALID,357,VALID,0.430859,
2008-10-30, 01:07:04,VALID,1006.53,VALID,0,VALID,89.38,VALID,0,VALID,22.5942,VALID,341,VALID,1.05156,
2008-10-30, 01:08:04,VALID,1006.54,VALID,0,VALID,89.296,VALID,0,VALID,22.5942,VALID,355,VALID,1.27578,
2008-10-30, 01:09:04,VALID,1006.49,VALID,0,VALID,89.3647,VALID,0,VALID,22.5748,VALID,356,VALID,0.961719,
2008-10-30, 01:10:04,VALID,1006.52,VALID,0,VALID,89.38,VALID,0,VALID,22.5553,VALID,12,VALID,1.16758,
2008-10-30, 01:11:04,VALID,1006.51,VALID,0,VALID,89.441,VALID,0,VALID,22.5553,VALID,6,VALID,0.782031,
2008-10-30, 01:12:04,VALID,1006.56,VALID,0,VALID,89.1358,VALID,0,VALID,22.5553,VALID,343,VALID,1.79531,
2008-10-30, 01:13:04,VALID,1006.54,VALID,0,VALID,89.2198,VALID,0,VALID,22.5748,VALID,41,VALID,1.21289,
2008-10-30, 01:14:04,VALID,1006.55,VALID,0,VALID,89.2045,VALID,0,VALID,22.5748,VALID,355,VALID,0.932422,
2008-10-30, 01:15:04,VALID,1006.57,VALID,0,VALID,89.2732,VALID,0,VALID,22.5553,VALID,10,VALID,1.03633,
2008-10-30, 01:16:04,VALID,1006.6,VALID,0,VALID,89.4105,VALID,0,VALID,22.5553,VALID,352,VALID,0.657422,
2008-10-30, 01:17:04,VALID,1006.61,VALID,0,VALID,89.441,VALID,0,VALID,22.557,VALID,2,VALID,0.922656,
2008-10-30, 01:18:04,VALID,1006.59,VALID,0,VALID,89.3723,VALID,0,VALID,22.557,VALID,354,VALID,0.917969,
2008-10-30, 01:19:04,VALID,1006.63,VALID,0,VALID,89.3952,VALID,0,VALID,22.5359,VALID,350,VALID,1.08203,
2008-10-30, 01:20:04,VALID,1006.63,VALID,0.5,VALID,89.5249,VALID,0,VALID,22.5181,VALID,360,VALID,0.397656,
2008-10-30, 01:21:04,VALID,1006.61,VALID,0,VALID,89.5097,VALID,0,VALID,22.4563,VALID,333,VALID,1.03516,
2008-10-30, 01:22:04,VALID,1006.66,VALID,0,VALID,89.5631,VALID,0,VALID,22.458,VALID,356,VALID,1.18203,
2008-10-30, 01:23:04,VALID,1006.69,VALID,0,VALID,89.4486,VALID,0,VALID,22.4386,VALID,354,VALID,1.15234,
2008-10-30, 01:24:04,VALID,1006.67,VALID,0,VALID,89.5554,VALID,0,VALID,22.458,VALID,3,VALID,0.815625,
2008-10-30, 01:25:04,VALID,1006.64,VALID,0,VALID,89.4563,VALID,0,VALID,22.4386,VALID,347,VALID,2.67578,
2008-10-30, 01:26:04,VALID,1006.66,VALID,0,VALID,89.6088,VALID,0,VALID,22.4386,VALID,341,VALID,0.870703,
2008-10-30, 01:27:04,VALID,1006.63,VALID,0,VALID,89.5707,VALID,0,VALID,22.4191,VALID,358,VALID,1.91055,
2008-10-30, 01:28:04,VALID,1006.63,VALID,0,VALID,89.5173,VALID,0,VALID,22.4191,VALID,16,VALID,2.01016,
2008-10-30, 01:29:04,VALID,1006.62,VALID,0,VALID,89.5173,VALID,0,VALID,22.458,VALID,359,VALID,0.750391,
2008-10-30, 01:30:04,VALID,1006.61,VALID,0,VALID,89.5249,VALID,0,VALID,22.4403,VALID,6,VALID,0.900781,
2008-10-30, 01:31:04,VALID,1006.63,VALID,0,VALID,89.6393,VALID,0,VALID,22.4403,VALID,16,VALID,1.62773,
2008-10-30, 01:32:04,VALID,1006.6,VALID,0.5,VALID,89.6622,VALID,0,VALID,22.3997,VALID,36,VALID,1.18047,
2008-10-30, 01:33:04,VALID,1006.6,VALID,0,VALID,89.6317,VALID,0,VALID,22.3997,VALID,15,VALID,1.55625,
2008-10-30, 01:34:04,VALID,1006.56,VALID,0,VALID,89.3494,VALID,0,VALID,22.4403,VALID,27,VALID,1.58945,
2008-10-30, 01:35:04,VALID,1006.55,VALID,0,VALID,89.3266,VALID,0,VALID,22.4174,VALID,25,VALID,1.76406,
2008-10-30, 01:36:04,VALID,1006.59,VALID,0,VALID,89.3571,VALID,0.100563,VALID,22.458,VALID,31,VALID,1.09805,
2008-10-30, 01:37:04,VALID,1006.55,VALID,0,VALID,89.0901,VALID,0,VALID,22.398,VALID,350,VALID,2.67031,
2008-10-30, 01:38:04,VALID,1006.56,VALID,0,VALID,89.113,VALID,0,VALID,22.4775,VALID,15,VALID,1.60156,
2008-10-30, 01:39:04,VALID,1006.55,VALID,0,VALID,89.1511,VALID,0,VALID,22.458,VALID,28,VALID,1.08047,
2008-10-30, 01:40:04,VALID,1006.47,VALID,0,VALID,89.1892,VALID,0,VALID,22.458,VALID,32,VALID,1.61836,
2008-10-30, 01:41:04,VALID,1006.52,VALID,0,VALID,89.2579,VALID,0,VALID,22.458,VALID,25,VALID,0.873438,
2008-10-30, 01:42:04,VALID,1006.47,VALID,0,VALID,89.2198,VALID,0,VALID,22.4386,VALID,28,VALID,1.56055,
2008-10-30, 01:43:04,VALID,1006.52,VALID,0,VALID,89.1435,VALID,0,VALID,22.4386,VALID,22,VALID,2.19766,
2008-10-30, 01:44:04,VALID,1006.5,VALID,0,VALID,89.0443,VALID,0,VALID,22.4386,VALID,34,VALID,2.58828,
2008-10-30, 01:45:04,VALID,1006.51,VALID,0,VALID,88.8993,VALID,0,VALID,22.497,VALID,24,VALID,2.54922,
2008-10-30, 01:46:04,VALID,1006.52,VALID,0,VALID,88.9451,VALID,0,VALID,22.5164,VALID,34,VALID,1.56953,
2008-10-30, 01:47:04,VALID,1006.57,VALID,0,VALID,88.7925,VALID,0,VALID,22.5164,VALID,15,VALID,1.92344,
2008-10-30, 01:48:04,VALID,1006.59,VALID,0,VALID,88.5866,VALID,0.100563,VALID,22.5359,VALID,18,VALID,3.41211,
2008-10-30, 01:49:04,VALID,1006.6,VALID,0,VALID,88.5637,VALID,0,VALID,22.5359,VALID,23,VALID,1.72383,
2008-10-30, 01:50:04,VALID,1006.58,VALID,0,VALID,88.6628,VALID,0,VALID,22.5359,VALID,20,VALID,1.86172,
2008-10-30, 01:51:04,VALID,1006.58,VALID,0,VALID,88.556,VALID,0.100563,VALID,22.5164,VALID,32,VALID,2.0707,
2008-10-30, 01:52:04,VALID,1006.61,VALID,0.5,VALID,88.5713,VALID,0,VALID,22.5164,VALID,6,VALID,1.54258,
2008-10-30, 01:53:04,VALID,1006.56,VALID,0,VALID,88.6781,VALID,0,VALID,22.4758,VALID,42,VALID,1.64141,
2008-10-30, 01:54:04,VALID,1006.59,VALID,0,VALID,88.5179,VALID,0,VALID,22.4987,VALID,17,VALID,2.16836,
2008-10-30, 01:55:04,VALID,1006.64,VALID,0,VALID,88.5408,VALID,0,VALID,22.4987,VALID,357,VALID,1.59063,
2008-10-30, 01:56:04,VALID,1006.62,VALID,0,VALID,89.4257,VALID,0,VALID,22.4987,VALID,23,VALID,3.0375,
2008-10-30, 01:57:04,VALID,1006.68,VALID,0,VALID,90.3717,VALID,0,VALID,22.4792,VALID,5,VALID,1.56602,
2008-10-30, 01:58:04,VALID,1006.63,VALID,0,VALID,90.1734,VALID,0,VALID,22.4792,VALID,34,VALID,1.80313,
2008-10-30, 01:59:04,VALID,1006.59,VALID,0,VALID,89.8606,VALID,0,VALID,22.4792,VALID,21,VALID,4.24336,
2008-10-30, 02:00:04,VALID,1006.62,VALID,0,VALID,89.6622,VALID,0,VALID,22.557,VALID,14,VALID,1.73516,
2008-10-30, 02:01:04,VALID,1006.62,VALID,0,VALID,89.9292,VALID,0,VALID,22.557,VALID,46,VALID,1.48359,
2008-10-30, 02:02:04,VALID,1006.66,VALID,0,VALID,90.181,VALID,0,VALID,22.5181,VALID,348,VALID,1.11719,
2008-10-30, 02:03:04,VALID,1006.61,VALID,0,VALID,90.2878,VALID,0,VALID,22.458,VALID,29,VALID,2.00625,
2008-10-30, 02:04:04,VALID,1006.64,VALID,0,VALID,90.3183,VALID,0,VALID,22.4597,VALID,19,VALID,2.01445,
2008-10-30, 02:05:04,VALID,1006.64,VALID,0,VALID,90.4556,VALID,0,VALID,22.4597,VALID,35,VALID,1.51328,
2008-10-30, 02:06:04,VALID,1006.65,VALID,0,VALID,90.3259,VALID,0,VALID,22.4792,VALID,13,VALID,2.18789,
2008-10-30, 02:07:04,VALID,1006.67,VALID,0,VALID,90.2573,VALID,0,VALID,22.4775,VALID,23,VALID,2.28984,
2008-10-30, 02:08:04,VALID,1006.67,VALID,0,VALID,90.2878,VALID,0,VALID,22.4987,VALID,30,VALID,2.42031,
2008-10-30, 02:09:04,VALID,1006.7,VALID,0,VALID,90.4251,VALID,0,VALID,22.5164,VALID,26,VALID,0.945313,
2008-10-30, 02:10:04,VALID,1006.66,VALID,0,VALID,90.1886,VALID,0,VALID,22.5553,VALID,34,VALID,2.57148,
2008-10-30, 02:11:04,VALID,1006.7,VALID,0,VALID,90.0971,VALID,0,VALID,22.5731,VALID,23,VALID,3.14063,
2008-10-30, 02:12:04,VALID,1006.66,VALID,0,VALID,90.0818,VALID,0,VALID,22.6332,VALID,35,VALID,1.67734,
2008-10-30, 02:13:04,VALID,1006.67,VALID,0,VALID,90.181,VALID,0,VALID,22.5942,VALID,35,VALID,1.75195,
2008-10-30, 02:14:04,VALID,1006.68,VALID,0,VALID,90.3488,VALID,0,VALID,22.5748,VALID,35,VALID,1.70313,
2008-10-30, 02:15:04,VALID,1006.66,VALID,0,VALID,90.3336,VALID,0,VALID,22.5147,VALID,15,VALID,3.05625,
2008-10-30, 02:16:04,VALID,1006.68,VALID,0,VALID,90.4785,VALID,0.100563,VALID,22.4953,VALID,26,VALID,1.34141,
2008-10-30, 02:17:04,VALID,1006.68,VALID,0,VALID,90.3793,VALID,0,VALID,22.5164,VALID,22,VALID,2.36406,
2008-10-30, 02:18:04,VALID,1006.68,VALID,0,VALID,90.5243,VALID,0,VALID,22.4758,VALID,56,VALID,1.16133,
2008-10-30, 02:19:04,VALID,1006.66,VALID,0,VALID,90.448,VALID,0,VALID,22.4987,VALID,61,VALID,1.32539,
2008-10-30, 02:20:04,VALID,1006.65,VALID,0,VALID,90.2115,VALID,0,VALID,22.497,VALID,36,VALID,2.54961,
2008-10-30, 02:21:04,VALID,1006.63,VALID,0,VALID,90.1657,VALID,0,VALID,22.5359,VALID,18,VALID,2.97383,
2008-10-30, 02:22:04,VALID,1006.66,VALID,0,VALID,90.1047,VALID,0.100563,VALID,22.5359,VALID,33,VALID,2.24961,
2008-10-30, 02:23:04,VALID,1006.64,VALID,0,VALID,90.181,VALID,0,VALID,22.5553,VALID,21,VALID,1.99609,
2008-10-30, 02:24:04,VALID,1006.62,VALID,0,VALID,90.1429,VALID,0.100563,VALID,22.5342,VALID,59,VALID,1.59766,
2008-10-30, 02:25:04,VALID,1006.62,VALID,0,VALID,90.0437,VALID,0,VALID,22.5359,VALID,21,VALID,2.47734,
2008-10-30, 02:26:04,VALID,1006.58,VALID,0,VALID,89.6546,VALID,0.100563,VALID,22.6332,VALID,54,VALID,2.39258,
2008-10-30, 02:27:04,VALID,1006.62,VALID,0,VALID,89.5402,VALID,0,VALID,22.6721,VALID,29,VALID,2.38906,
2008-10-30, 02:28:04,VALID,1006.63,VALID,0,VALID,89.7233,VALID,0,VALID,22.6526,VALID,47,VALID,1.50859,
2008-10-30, 02:29:04,VALID,1006.58,VALID,0,VALID,89.9064,VALID,0,VALID,22.5925,VALID,52,VALID,2.03711,
2008-10-30, 02:30:04,VALID,1006.58,VALID,0,VALID,89.8377,VALID,0,VALID,22.6137,VALID,31,VALID,3.26445,
2008-10-30, 02:31:04,VALID,1006.6,VALID,0,VALID,89.9979,VALID,0,VALID,22.5942,VALID,28,VALID,1.86094,
2008-10-30, 02:32:04,VALID,1006.6,VALID,0.5,VALID,90.242,VALID,0,VALID,22.5536,VALID,63,VALID,1.44297,
2008-10-30, 02:33:04,VALID,1006.58,VALID,0,VALID,90.3412,VALID,0,VALID,22.5553,VALID,53,VALID,1.26328,
2008-10-30, 02:34:04,VALID,1006.55,VALID,0,VALID,90.4404,VALID,0,VALID,22.5553,VALID,30,VALID,1.16602,
2008-10-30, 02:35:04,VALID,1006.52,VALID,0,VALID,90.387,VALID,0,VALID,22.5342,VALID,22,VALID,2.49609,
2008-10-30, 02:36:04,VALID,1006.54,VALID,0,VALID,90.3259,VALID,0,VALID,22.5942,VALID,44,VALID,1.5207,
2008-10-30, 02:37:04,VALID,1006.55,VALID,0,VALID,90.4175,VALID,0,VALID,22.5748,VALID,22,VALID,0.739062,
2008-10-30, 02:38:04,VALID,1006.54,VALID,0,VALID,90.4709,VALID,0,VALID,22.5342,VALID,38,VALID,1.60039,
2008-10-30, 02:39:04,VALID,1006.54,VALID,0,VALID,90.6387,VALID,0,VALID,22.5359,VALID,19,VALID,1.79453,
2008-10-30, 02:40:04,VALID,1006.51,VALID,0,VALID,90.7074,VALID,0.100563,VALID,22.5359,VALID,36,VALID,2.03672,
2008-10-30, 02:41:04,VALID,1006.54,VALID,0,VALID,90.776,VALID,0.100563,VALID,22.5359,VALID,19,VALID,1.3168,
2008-10-30, 02:42:04,VALID,1006.51,VALID,0,VALID,90.86,VALID,0,VALID,22.5359,VALID,29,VALID,0.960547,
2008-10-30, 02:43:04,VALID,1006.52,VALID,0,VALID,90.7837,VALID,0,VALID,22.4953,VALID,36,VALID,1.40352,
2008-10-30, 02:44:04,VALID,1006.5,VALID,0,VALID,91.0202,VALID,0,VALID,22.5147,VALID,34,VALID,1.0793,
2008-10-30, 02:45:04,VALID,1006.46,VALID,0,VALID,90.9973,VALID,0,VALID,22.5164,VALID,26,VALID,0.677344,
2008-10-30, 02:46:04,VALID,1006.44,VALID,0.5,VALID,91.0278,VALID,0,VALID,22.497,VALID,45,VALID,1.20586,
2008-10-30, 02:47:04,VALID,1006.44,VALID,0,VALID,91.0736,VALID,0,VALID,22.458,VALID,42,VALID,0.786328,
2008-10-30, 02:48:04,VALID,1006.41,VALID,0,VALID,91.1804,VALID,0,VALID,22.4386,VALID,42,VALID,0.605859,
2008-10-30, 02:49:04,VALID,1006.41,VALID,0,VALID,91.188,VALID,0.100563,VALID,22.4174,VALID,66,VALID,0.63125,
2008-10-30, 02:50:04,VALID,1006.4,VALID,0,VALID,91.2872,VALID,0,VALID,22.4191,VALID,48,VALID,0.567578,
2008-10-30, 02:51:04,VALID,1006.38,VALID,0,VALID,91.4016,VALID,0,VALID,22.398,VALID,59,VALID,0.488281,
2008-10-30, 02:52:04,VALID,1006.37,VALID,0,VALID,91.3864,VALID,0,VALID,22.4191,VALID,47,VALID,0.527344,
2008-10-30, 02:53:04,VALID,1006.38,VALID,0,VALID,91.3558,VALID,0.100563,VALID,22.4191,VALID,41,VALID,0.839063,
2008-10-30, 02:54:04,VALID,1006.39,VALID,0,VALID,91.3177,VALID,0,VALID,22.4386,VALID,3,VALID,0.605859,
2008-10-30, 02:55:04,VALID,1006.36,VALID,0,VALID,91.1651,VALID,0,VALID,22.4191,VALID,21,VALID,1.01211,
2008-10-30, 02:56:04,VALID,1006.35,VALID,0,VALID,91.1041,VALID,0,VALID,22.4386,VALID,51,VALID,0.473828,
2008-10-30, 02:57:04,VALID,1006.36,VALID,0,VALID,91.0812,VALID,0,VALID,22.458,VALID,15,VALID,0.498437,
2008-10-30, 02:58:04,VALID,1006.33,VALID,0,VALID,91.0125,VALID,0.100563,VALID,22.4386,VALID,25,VALID,0.610547,
2008-10-30, 02:59:04,VALID,1006.37,VALID,0,VALID,91.0049,VALID,0,VALID,22.458,VALID,163,VALID,0.538672,
2008-10-30, 03:00:04,VALID,1006.36,VALID,0,VALID,90.9286,VALID,0,VALID,22.4775,VALID,223,VALID,1.17773,
2008-10-30, 03:01:04,VALID,1006.4,VALID,0,VALID,90.9591,VALID,0,VALID,22.4191,VALID,224,VALID,0.496875,
2008-10-30, 03:02:04,VALID,1006.38,VALID,0,VALID,91.0812,VALID,0,VALID,22.3802,VALID,198,VALID,0.790625,
2008-10-30, 03:03:04,VALID,1006.4,VALID,0,VALID,91.2872,VALID,0.100563,VALID,22.3413,VALID,171,VALID,1.25,
2008-10-30, 03:04:04,VALID,1006.39,VALID,0,VALID,91.455,VALID,0,VALID,22.3413,VALID,169,VALID,1.47187,
2008-10-30, 03:05:04,VALID,1006.39,VALID,0,VALID,91.6,VALID,0,VALID,22.3608,VALID,169,VALID,1.66094,
2008-10-30, 03:06:04,VALID,1006.41,VALID,0,VALID,91.6839,VALID,0,VALID,22.3608,VALID,157,VALID,1.50273,
2008-10-30, 03:07:04,VALID,1006.41,VALID,0,VALID,91.7602,VALID,0.100563,VALID,22.3608,VALID,155,VALID,0.957812,
2008-10-30, 03:08:04,VALID,1006.42,VALID,0,VALID,91.7297,VALID,0.100563,VALID,22.3802,VALID,143,VALID,0.988672,
2008-10-30, 03:09:04,VALID,1006.41,VALID,0,VALID,91.7068,VALID,0,VALID,22.3802,VALID,158,VALID,0.966797,
2008-10-30, 03:10:04,VALID,1006.38,VALID,0,VALID,91.7678,VALID,0,VALID,22.3802,VALID,154,VALID,0.797266,
2008-10-30, 03:11:04,VALID,1006.42,VALID,0,VALID,91.7525,VALID,0.100563,VALID,22.3802,VALID,159,VALID,0.824219,
2008-10-30, 03:12:04,VALID,1006.39,VALID,0,VALID,91.7449,VALID,0.100563,VALID,22.3802,VALID,156,VALID,0.905859,
2008-10-30, 03:13:04,VALID,1006.42,VALID,0,VALID,91.7297,VALID,0.100563,VALID,22.3608,VALID,156,VALID,0.592969,
2008-10-30, 03:14:04,VALID,1006.42,VALID,0,VALID,91.722,VALID,0,VALID,22.3608,VALID,156,VALID,0.529688,
2008-10-30, 03:15:04,VALID,1006.39,VALID,0,VALID,91.7525,VALID,0.100563,VALID,22.3608,VALID,156,VALID,0.329297,
2008-10-30, 03:16:04,VALID,1006.39,VALID,0,VALID,91.7754,VALID,0,VALID,22.3608,VALID,156,VALID,0.171875,
2008-10-30, 03:17:04,VALID,1006.41,VALID,0,VALID,91.8136,VALID,0.100563,VALID,22.3608,VALID,156,VALID,0.183594,
2008-10-30, 03:18:04,VALID,1006.39,VALID,0,VALID,91.8365,VALID,0.100563,VALID,22.3202,VALID,156,VALID,0.255078,
2008-10-30, 03:19:04,VALID,1006.39,VALID,0,VALID,91.867,VALID,0,VALID,22.3202,VALID,156,VALID,0.203125,
2008-10-30, 03:20:04,VALID,1006.32,VALID,0,VALID,91.8441,VALID,0,VALID,22.3007,VALID,156,VALID,0,
2008-10-30, 03:21:04,VALID,1006.31,VALID,0,VALID,91.8746,VALID,0.100563,VALID,22.3413,VALID,156,VALID,0,
2008-10-30, 03:22:04,VALID,1006.28,VALID,0,VALID,91.9433,VALID,0,VALID,22.3413,VALID,156,VALID,0,
2008-10-30, 03:23:04,VALID,1006.24,VALID,0,VALID,91.9585,VALID,0,VALID,22.3202,VALID,156,VALID,0,
2008-10-30, 03:24:04,VALID,1006.23,VALID,0,VALID,91.9585,VALID,0.100563,VALID,22.3007,VALID,156,VALID,0,
2008-10-30, 03:25:04,VALID,1006.2,VALID,0,VALID,91.9433,VALID,0.100563,VALID,22.3007,VALID,156,VALID,0,
2008-10-30, 03:26:04,VALID,1006.21,VALID,0,VALID,91.9433,VALID,0.100563,VALID,22.3024,VALID,156,VALID,0,
2008-10-30, 03:27:04,VALID,1006.17,VALID,0,VALID,91.8975,VALID,0.100563,VALID,22.2812,VALID,129,VALID,0,
2008-10-30, 03:28:04,VALID,1006.18,VALID,0,VALID,91.9662,VALID,0,VALID,22.2829,VALID,65,VALID,0.473828,
2008-10-30, 03:29:04,VALID,1006.16,VALID,0,VALID,91.989,VALID,0.100563,VALID,22.2829,VALID,54,VALID,0.436719,
2008-10-30, 03:30:04,VALID,1006.17,VALID,0,VALID,91.9967,VALID,0,VALID,22.2423,VALID,54,VALID,0.344141,
2008-10-30, 03:31:04,VALID,1006.18,VALID,0,VALID,91.9662,VALID,0,VALID,22.2652,VALID,54,VALID,0.1125,
2008-10-30, 03:32:04,VALID,1006.17,VALID,0,VALID,91.9814,VALID,0,VALID,22.244,VALID,54,VALID,0.258594,
2008-10-30, 03:33:04,VALID,1006.12,VALID,0,VALID,92.0043,VALID,0.100563,VALID,22.2246,VALID,54,VALID,0.102344,
2008-10-30, 03:34:04,VALID,1006.13,VALID,0,VALID,92.0272,VALID,0.100563,VALID,22.2246,VALID,54,VALID,0,
2008-10-30, 03:35:04,VALID,1006.11,VALID,0,VALID,91.989,VALID,0,VALID,22.2051,VALID,54,VALID,0,
2008-10-30, 03:36:04,VALID,1006.12,VALID,0,VALID,92.0196,VALID,0.100563,VALID,22.2051,VALID,54,VALID,0.202734,
2008-10-30, 03:37:04,VALID,1006.08,VALID,0,VALID,92.0348,VALID,0.100563,VALID,22.2051,VALID,54,VALID,0,
2008-10-30, 03:38:04,VALID,1006.09,VALID,0,VALID,91.9967,VALID,0.100563,VALID,22.2051,VALID,54,VALID,0,
2008-10-30, 03:39:04,VALID,1006.09,VALID,0,VALID,91.989,VALID,0.100563,VALID,22.1857,VALID,54,VALID,0,
2008-10-30, 03:40:04,VALID,1006.13,VALID,0,VALID,92.0043,VALID,0,VALID,22.2051,VALID,54,VALID,0,
2008-10-30, 03:41:04,VALID,1006.1,VALID,0,VALID,92.0348,VALID,0,VALID,22.1645,VALID,54,VALID,0.194141,
2008-10-30, 03:42:04,VALID,1006.11,VALID,0,VALID,92.0196,VALID,0.100563,VALID,22.2051,VALID,54,VALID,0.120703,
2008-10-30, 03:43:04,VALID,1006.11,VALID,0,VALID,91.9662,VALID,0.100563,VALID,22.1857,VALID,54,VALID,0.242969,
2008-10-30, 03:44:04,VALID,1006.1,VALID,0,VALID,92.0196,VALID,0.100563,VALID,22.2068,VALID,54,VALID,0.26875,
2008-10-30, 03:45:04,VALID,1006.09,VALID,0,VALID,91.9967,VALID,0,VALID,22.1857,VALID,54,VALID,0.161719,